Year,Month,Day,Hour,Minute,Value (Times are PST for insolation in W/m^2)
2007,09,29,00,00,0.00
2007,09,29,00,01,0.00
2007,09,29,00,02,0.00
2007,09,29,00,03,0.00
2007,09,29,00,04,0.00
2007,09,29,00,05,0.00
2007,09,29,00,06,0.00
2007,09,29,00,07,0.00
2007,09,29,00,08,0.00
2007,09,29,00,09,0.00
2007,09,29,00,10,0.00
2007,09,29,00,11,0.00
2007,09,29,00,12,0.00
2007,09,29,00,13,0.00
2007,09,29,00,14,0.00
2007,09,29,00,15,0.00
2007,09,29,00,16,0.00
2007,09,29,00,17,0.00
2007,09,29,00,18,0.00
2007,09,29,00,19,0.00
2007,09,29,00,20,0.00
2007,09,29,00,21,0.00
2007,09,29,00,22,0.00
2007,09,29,00,23,0.00
2007,09,29,00,24,0.00
2007,09,29,00,25,0.00
2007,09,29,00,26,0.00
2007,09,29,00,27,0.00
2007,09,29,00,28,0.00
2007,09,29,00,29,0.00
2007,09,29,00,30,0.00
2007,09,29,00,31,0.00
2007,09,29,00,32,0.00
2007,09,29,00,33,0.00
2007,09,29,00,34,0.00
2007,09,29,00,35,0.00
2007,09,29,00,36,0.00
2007,09,29,00,37,0.00
2007,09,29,00,38,0.00
2007,09,29,00,39,0.00
2007,09,29,00,40,0.00
2007,09,29,00,41,0.00
2007,09,29,00,42,0.00
2007,09,29,00,43,0.00
2007,09,29,00,44,0.00
2007,09,29,00,45,0.00
2007,09,29,00,46,0.00
2007,09,29,00,47,0.00
2007,09,29,00,48,0.00
2007,09,29,00,49,0.00
2007,09,29,00,50,0.00
2007,09,29,00,51,0.00
2007,09,29,00,52,0.00
2007,09,29,00,53,0.00
2007,09,29,00,54,0.00
2007,09,29,00,55,0.00
2007,09,29,00,56,0.00
2007,09,29,00,57,0.00
2007,09,29,00,58,0.00
2007,09,29,00,59,0.00
2007,09,29,01,00,0.00
2007,09,29,01,01,0.00
2007,09,29,01,02,0.00
2007,09,29,01,03,0.00
2007,09,29,01,04,0.00
2007,09,29,01,05,0.00
2007,09,29,01,06,0.00
2007,09,29,01,07,0.00
2007,09,29,01,08,0.00
2007,09,29,01,09,0.00
2007,09,29,01,10,0.00
2007,09,29,01,11,0.00
2007,09,29,01,12,0.00
2007,09,29,01,13,0.00
2007,09,29,01,14,0.00
2007,09,29,01,15,0.00
2007,09,29,01,16,0.00
2007,09,29,01,17,0.00
2007,09,29,01,18,0.00
2007,09,29,01,19,0.00
2007,09,29,01,20,0.00
2007,09,29,01,21,0.00
2007,09,29,01,22,0.00
2007,09,29,01,23,0.00
2007,09,29,01,24,0.00
2007,09,29,01,25,0.00
2007,09,29,01,26,0.00
2007,09,29,01,27,0.00
2007,09,29,01,28,0.00
2007,09,29,01,29,0.00
2007,09,29,01,30,0.00
2007,09,29,01,31,0.00
2007,09,29,01,32,0.00
2007,09,29,01,33,0.00
2007,09,29,01,34,0.00
2007,09,29,01,35,0.00
2007,09,29,01,36,0.00
2007,09,29,01,37,0.00
2007,09,29,01,38,0.00
2007,09,29,01,39,0.00
2007,09,29,01,40,0.00
2007,09,29,01,41,0.00
2007,09,29,01,42,0.00
2007,09,29,01,43,0.00
2007,09,29,01,44,0.00
2007,09,29,01,45,0.00
2007,09,29,01,46,0.00
2007,09,29,01,47,0.00
2007,09,29,01,48,0.00
2007,09,29,01,49,0.00
2007,09,29,01,50,0.00
2007,09,29,01,51,0.00
2007,09,29,01,52,0.00
2007,09,29,01,53,0.00
2007,09,29,01,54,0.00
2007,09,29,01,55,0.00
2007,09,29,01,56,0.00
2007,09,29,01,57,0.00
2007,09,29,01,58,0.00
2007,09,29,01,59,0.00
2007,09,29,02,00,0.00
2007,09,29,02,01,0.00
2007,09,29,02,02,0.00
2007,09,29,02,03,0.00
2007,09,29,02,04,0.00
2007,09,29,02,05,0.00
2007,09,29,02,06,0.00
2007,09,29,02,07,0.00
2007,09,29,02,08,0.00
2007,09,29,02,09,0.00
2007,09,29,02,10,0.00
2007,09,29,02,11,0.00
2007,09,29,02,12,0.00
2007,09,29,02,13,0.00
2007,09,29,02,14,0.00
2007,09,29,02,15,0.00
2007,09,29,02,16,0.00
2007,09,29,02,17,0.00
2007,09,29,02,18,0.00
2007,09,29,02,19,0.00
2007,09,29,02,20,0.00
2007,09,29,02,21,0.00
2007,09,29,02,22,0.00
2007,09,29,02,23,0.00
2007,09,29,02,24,0.00
2007,09,29,02,25,0.00
2007,09,29,02,26,0.00
2007,09,29,02,27,0.00
2007,09,29,02,28,0.00
2007,09,29,02,29,0.00
2007,09,29,02,30,0.00
2007,09,29,02,31,0.00
2007,09,29,02,32,0.00
2007,09,29,02,33,0.00
2007,09,29,02,34,0.00
2007,09,29,02,35,0.00
2007,09,29,02,36,0.00
2007,09,29,02,37,0.00
2007,09,29,02,38,0.00
2007,09,29,02,39,0.00
2007,09,29,02,40,0.00
2007,09,29,02,41,0.00
2007,09,29,02,42,0.00
2007,09,29,02,43,0.00
2007,09,29,02,44,0.00
2007,09,29,02,45,0.00
2007,09,29,02,46,0.00
2007,09,29,02,47,0.00
2007,09,29,02,48,0.00
2007,09,29,02,49,0.00
2007,09,29,02,50,0.00
2007,09,29,02,51,0.00
2007,09,29,02,52,0.00
2007,09,29,02,53,0.00
2007,09,29,02,54,0.00
2007,09,29,02,55,0.00
2007,09,29,02,56,0.00
2007,09,29,02,57,0.00
2007,09,29,02,58,0.00
2007,09,29,02,59,0.00
2007,09,29,03,00,0.00
2007,09,29,03,01,0.00
2007,09,29,03,02,0.00
2007,09,29,03,03,0.00
2007,09,29,03,04,0.00
2007,09,29,03,05,0.00
2007,09,29,03,06,0.00
2007,09,29,03,07,0.00
2007,09,29,03,08,0.00
2007,09,29,03,09,0.00
2007,09,29,03,10,0.00
2007,09,29,03,11,0.00
2007,09,29,03,12,0.00
2007,09,29,03,13,0.00
2007,09,29,03,14,0.00
2007,09,29,03,15,0.00
2007,09,29,03,16,0.00
2007,09,29,03,17,0.00
2007,09,29,03,18,0.00
2007,09,29,03,19,0.00
2007,09,29,03,20,0.00
2007,09,29,03,21,0.00
2007,09,29,03,22,0.00
2007,09,29,03,23,0.00
2007,09,29,03,24,0.00
2007,09,29,03,25,0.00
2007,09,29,03,26,0.00
2007,09,29,03,27,0.00
2007,09,29,03,28,0.00
2007,09,29,03,29,0.00
2007,09,29,03,30,0.00
2007,09,29,03,31,0.00
2007,09,29,03,32,0.00
2007,09,29,03,33,0.00
2007,09,29,03,34,0.00
2007,09,29,03,35,0.00
2007,09,29,03,36,0.00
2007,09,29,03,37,0.00
2007,09,29,03,38,0.00
2007,09,29,03,39,0.00
2007,09,29,03,40,0.00
2007,09,29,03,41,0.00
2007,09,29,03,42,0.00
2007,09,29,03,43,0.00
2007,09,29,03,44,0.00
2007,09,29,03,45,0.00
2007,09,29,03,46,0.00
2007,09,29,03,47,0.00
2007,09,29,03,48,0.00
2007,09,29,03,49,0.00
2007,09,29,03,50,0.00
2007,09,29,03,51,0.00
2007,09,29,03,52,0.00
2007,09,29,03,53,0.00
2007,09,29,03,54,0.00
2007,09,29,03,55,0.00
2007,09,29,03,56,0.00
2007,09,29,03,57,0.00
2007,09,29,03,58,0.00
2007,09,29,03,59,0.00
2007,09,29,04,00,0.00
2007,09,29,04,01,0.00
2007,09,29,04,02,0.00
2007,09,29,04,03,0.00
2007,09,29,04,04,0.00
2007,09,29,04,05,0.00
2007,09,29,04,06,0.00
2007,09,29,04,07,0.00
2007,09,29,04,08,0.00
2007,09,29,04,09,0.00
2007,09,29,04,10,0.00
2007,09,29,04,11,0.00
2007,09,29,04,12,0.00
2007,09,29,04,13,0.00
2007,09,29,04,14,0.00
2007,09,29,04,15,0.00
2007,09,29,04,16,0.00
2007,09,29,04,17,0.00
2007,09,29,04,18,0.00
2007,09,29,04,19,0.00
2007,09,29,04,20,0.00
2007,09,29,04,21,0.00
2007,09,29,04,22,0.00
2007,09,29,04,23,0.00
2007,09,29,04,24,0.00
2007,09,29,04,25,0.00
2007,09,29,04,26,0.00
2007,09,29,04,27,0.00
2007,09,29,04,28,0.00
2007,09,29,04,29,0.00
2007,09,29,04,30,0.00
2007,09,29,04,31,0.00
2007,09,29,04,32,0.00
2007,09,29,04,33,0.00
2007,09,29,04,34,0.00
2007,09,29,04,35,0.00
2007,09,29,04,36,0.00
2007,09,29,04,37,0.00
2007,09,29,04,38,0.00
2007,09,29,04,39,0.00
2007,09,29,04,40,0.00
2007,09,29,04,41,0.00
2007,09,29,04,42,0.00
2007,09,29,04,43,0.00
2007,09,29,04,44,0.00
2007,09,29,04,45,0.00
2007,09,29,04,46,0.00
2007,09,29,04,47,0.00
2007,09,29,04,48,0.00
2007,09,29,04,49,0.00
2007,09,29,04,50,0.00
2007,09,29,04,51,0.00
2007,09,29,04,52,0.00
2007,09,29,04,53,0.00
2007,09,29,04,54,0.00
2007,09,29,04,55,0.00
2007,09,29,04,56,0.00
2007,09,29,04,57,0.00
2007,09,29,04,58,0.00
2007,09,29,04,59,0.00
2007,09,29,05,00,0.00
2007,09,29,05,01,0.00
2007,09,29,05,02,0.00
2007,09,29,05,03,0.00
2007,09,29,05,04,0.00
2007,09,29,05,05,0.00
2007,09,29,05,06,0.00
2007,09,29,05,07,0.00
2007,09,29,05,08,0.00
2007,09,29,05,09,0.00
2007,09,29,05,10,0.00
2007,09,29,05,11,0.00
2007,09,29,05,12,0.00
2007,09,29,05,13,0.00
2007,09,29,05,14,0.00
2007,09,29,05,15,0.00
2007,09,29,05,16,0.00
2007,09,29,05,17,0.00
2007,09,29,05,18,0.00
2007,09,29,05,19,0.00
2007,09,29,05,20,0.00
2007,09,29,05,21,0.00
2007,09,29,05,22,0.00
2007,09,29,05,23,0.00
2007,09,29,05,24,0.00
2007,09,29,05,25,0.00
2007,09,29,05,26,0.00
2007,09,29,05,27,0.00
2007,09,29,05,28,0.00
2007,09,29,05,29,0.00
2007,09,29,05,30,0.00
2007,09,29,05,31,0.00
2007,09,29,05,32,0.00
2007,09,29,05,33,0.00
2007,09,29,05,34,0.00
2007,09,29,05,35,0.00
2007,09,29,05,36,0.00
2007,09,29,05,37,0.00
2007,09,29,05,38,0.00
2007,09,29,05,39,0.00
2007,09,29,05,40,0.00
2007,09,29,05,41,0.00
2007,09,29,05,42,0.00
2007,09,29,05,43,0.00
2007,09,29,05,44,0.00
2007,09,29,05,45,0.00
2007,09,29,05,46,0.00
2007,09,29,05,47,0.00
2007,09,29,05,48,0.00
2007,09,29,05,49,0.00
2007,09,29,05,50,0.00
2007,09,29,05,51,0.00
2007,09,29,05,52,0.00
2007,09,29,05,53,0.00
2007,09,29,05,54,0.00
2007,09,29,05,55,0.00
2007,09,29,05,56,0.00
2007,09,29,05,57,0.00
2007,09,29,05,58,0.00
2007,09,29,05,59,0.00
2007,09,29,06,00,0.00
2007,09,29,06,01,0.00
2007,09,29,06,02,0.00
2007,09,29,06,03,0.00
2007,09,29,06,04,0.00
2007,09,29,06,05,0.00
2007,09,29,06,06,0.00
2007,09,29,06,07,0.00
2007,09,29,06,08,0.00
2007,09,29,06,09,0.00
2007,09,29,06,10,0.00
2007,09,29,06,11,0.00
2007,09,29,06,12,0.00
2007,09,29,06,13,0.00
2007,09,29,06,14,0.00
2007,09,29,06,15,0.00
2007,09,29,06,16,0.00
2007,09,29,06,17,0.00
2007,09,29,06,18,0.00
2007,09,29,06,19,0.00
2007,09,29,06,20,0.00
2007,09,29,06,21,0.00
2007,09,29,06,22,0.00
2007,09,29,06,23,0.00
2007,09,29,06,24,0.00
2007,09,29,06,25,0.00
2007,09,29,06,26,0.00
2007,09,29,06,27,0.00
2007,09,29,06,28,0.00
2007,09,29,06,29,0.00
2007,09,29,06,30,0.00
2007,09,29,06,31,0.00
2007,09,29,06,32,0.00
2007,09,29,06,33,0.00
2007,09,29,06,34,0.00
2007,09,29,06,35,0.00
2007,09,29,06,36,0.00
2007,09,29,06,37,0.00
2007,09,29,06,38,0.00
2007,09,29,06,39,0.00
2007,09,29,06,40,0.00
2007,09,29,06,41,0.00
2007,09,29,06,42,0.00
2007,09,29,06,43,0.00
2007,09,29,06,44,0.00
2007,09,29,06,45,0.00
2007,09,29,06,46,0.00
2007,09,29,06,47,0.00
2007,09,29,06,48,0.00
2007,09,29,06,49,0.00
2007,09,29,06,50,0.00
2007,09,29,06,51,0.00
2007,09,29,06,52,0.00
2007,09,29,06,53,0.00
2007,09,29,06,54,0.00
2007,09,29,06,55,0.00
2007,09,29,06,56,0.00
2007,09,29,06,57,0.00
2007,09,29,06,58,0.00
2007,09,29,06,59,0.00
2007,09,29,07,00,0.00
2007,09,29,07,01,0.00
2007,09,29,07,02,0.00
2007,09,29,07,03,0.00
2007,09,29,07,04,1.50
2007,09,29,07,05,5.00
2007,09,29,07,06,5.00
2007,09,29,07,07,6.30
2007,09,29,07,08,5.10
2007,09,29,07,09,5.00
2007,09,29,07,10,5.00
2007,09,29,07,11,5.00
2007,09,29,07,12,5.00
2007,09,29,07,13,0.90
2007,09,29,07,14,0.00
2007,09,29,07,15,0.00
2007,09,29,07,16,0.00
2007,09,29,07,17,0.00
2007,09,29,07,18,0.00
2007,09,29,07,19,0.00
2007,09,29,07,20,0.00
2007,09,29,07,21,0.00
2007,09,29,07,22,0.00
2007,09,29,07,23,0.00
2007,09,29,07,24,0.00
2007,09,29,07,25,3.80
2007,09,29,07,26,5.00
2007,09,29,07,27,5.00
2007,09,29,07,28,5.00
2007,09,29,07,29,5.00
2007,09,29,07,30,5.00
2007,09,29,07,31,5.00
2007,09,29,07,32,5.00
2007,09,29,07,33,5.50
2007,09,29,07,34,7.00
2007,09,29,07,35,7.00
2007,09,29,07,36,7.00
2007,09,29,07,37,8.80
2007,09,29,07,38,9.20
2007,09,29,07,39,11.00
2007,09,29,07,40,11.40
2007,09,29,07,41,12.00
2007,09,29,07,42,12.00
2007,09,29,07,43,13.80
2007,09,29,07,44,14.00
2007,09,29,07,45,14.50
2007,09,29,07,46,16.00
2007,09,29,07,47,16.00
2007,09,29,07,48,16.00
2007,09,29,07,49,17.90
2007,09,29,07,50,18.00
2007,09,29,07,51,18.30
2007,09,29,07,52,19.90
2007,09,29,07,53,21.00
2007,09,29,07,54,21.00
2007,09,29,07,55,22.90
2007,09,29,07,56,23.00
2007,09,29,07,57,23.00
2007,09,29,07,58,23.00
2007,09,29,07,59,23.00
2007,09,29,08,00,23.00
2007,09,29,08,01,23.00
2007,09,29,08,02,23.00
2007,09,29,08,03,23.70
2007,09,29,08,04,25.00
2007,09,29,08,05,25.60
2007,09,29,08,06,26.00
2007,09,29,08,07,26.00
2007,09,29,08,08,26.00
2007,09,29,08,09,26.70
2007,09,29,08,10,28.00
2007,09,29,08,11,29.20
2007,09,29,08,12,30.00
2007,09,29,08,13,32.00
2007,09,29,08,14,32.20
2007,09,29,08,15,33.00
2007,09,29,08,16,34.00
2007,09,29,08,17,36.40
2007,09,29,08,18,38.80
2007,09,29,08,19,40.10
2007,09,29,08,20,42.00
2007,09,29,08,21,42.00
2007,09,29,08,22,40.80
2007,09,29,08,23,39.30
2007,09,29,08,24,39.00
2007,09,29,08,25,39.00
2007,09,29,08,26,39.00
2007,09,29,08,27,39.00
2007,09,29,08,28,39.00
2007,09,29,08,29,39.00
2007,09,29,08,30,39.00
2007,09,29,08,31,39.00
2007,09,29,08,32,38.40
2007,09,29,08,33,37.00
2007,09,29,08,34,37.00
2007,09,29,08,35,37.00
2007,09,29,08,36,38.90
2007,09,29,08,37,39.20
2007,09,29,08,38,40.60
2007,09,29,08,39,42.90
2007,09,29,08,40,45.70
2007,09,29,08,41,48.60
2007,09,29,08,42,51.00
2007,09,29,08,43,51.00
2007,09,29,08,44,50.40
2007,09,29,08,45,48.10
2007,09,29,08,46,47.00
2007,09,29,08,47,46.20
2007,09,29,08,48,46.00
2007,09,29,08,49,47.40
2007,09,29,08,50,49.70
2007,09,29,08,51,52.30
2007,09,29,08,52,56.80
2007,09,29,08,53,61.30
2007,09,29,08,54,65.20
2007,09,29,08,55,70.20
2007,09,29,08,56,76.40
2007,09,29,08,57,83.60
2007,09,29,08,58,89.50
2007,09,29,08,59,94.50
2007,09,29,09,00,97.80
2007,09,29,09,01,100.40
2007,09,29,09,02,102.70
2007,09,29,09,03,104.60
2007,09,29,09,04,105.00
2007,09,29,09,05,106.60
2007,09,29,09,06,106.80
2007,09,29,09,07,103.80
2007,09,29,09,08,98.80
2007,09,29,09,09,93.50
2007,09,29,09,10,89.10
2007,09,29,09,11,84.20
2007,09,29,09,12,76.40
2007,09,29,09,13,71.50
2007,09,29,09,14,69.50
2007,09,29,09,15,69.60
2007,09,29,09,16,69.20
2007,09,29,09,17,65.20
2007,09,29,09,18,62.20
2007,09,29,09,19,62.00
2007,09,29,09,20,62.50
2007,09,29,09,21,62.40
2007,09,29,09,22,60.60
2007,09,29,09,23,62.00
2007,09,29,09,24,60.00
2007,09,29,09,25,60.00
2007,09,29,09,26,60.00
2007,09,29,09,27,61.80
2007,09,29,09,28,67.90
2007,09,29,09,29,72.00
2007,09,29,09,30,72.80
2007,09,29,09,31,77.10
2007,09,29,09,32,79.00
2007,09,29,09,33,80.40
2007,09,29,09,34,81.00
2007,09,29,09,35,79.10
2007,09,29,09,36,75.80
2007,09,29,09,37,68.80
2007,09,29,09,38,62.50
2007,09,29,09,39,60.70
2007,09,29,09,40,58.20
2007,09,29,09,41,53.80
2007,09,29,09,42,58.90
2007,09,29,09,43,64.90
2007,09,29,09,44,69.60
2007,09,29,09,45,69.20
2007,09,29,09,46,65.50
2007,09,29,09,47,64.70
2007,09,29,09,48,63.90
2007,09,29,09,49,70.00
2007,09,29,09,50,72.40
2007,09,29,09,51,75.50
2007,09,29,09,52,85.40
2007,09,29,09,53,84.20
2007,09,29,09,54,87.50
2007,09,29,09,55,91.00
2007,09,29,09,56,89.20
2007,09,29,09,57,90.50
2007,09,29,09,58,96.60
2007,09,29,09,59,98.30
2007,09,29,10,00,101.20
2007,09,29,10,01,104.00
2007,09,29,10,02,102.70
2007,09,29,10,03,103.60
2007,09,29,10,04,102.00
2007,09,29,10,05,102.40
2007,09,29,10,06,101.90
2007,09,29,10,07,95.40
2007,09,29,10,08,90.00
2007,09,29,10,09,84.70
2007,09,29,10,10,80.70
2007,09,29,10,11,74.90
2007,09,29,10,12,69.60
2007,09,29,10,13,65.80
2007,09,29,10,14,59.20
2007,09,29,10,15,58.00
2007,09,29,10,16,62.60
2007,09,29,10,17,65.00
2007,09,29,10,18,64.30
2007,09,29,10,19,64.10
2007,09,29,10,20,65.00
2007,09,29,10,21,65.00
2007,09,29,10,22,61.60
2007,09,29,10,23,59.60
2007,09,29,10,24,66.80
2007,09,29,10,25,71.10
2007,09,29,10,26,72.00
2007,09,29,10,27,72.00
2007,09,29,10,28,77.50
2007,09,29,10,29,86.50
2007,09,29,10,30,88.00
2007,09,29,10,31,96.20
2007,09,29,10,32,105.40
2007,09,29,10,33,104.60
2007,09,29,10,34,97.80
2007,09,29,10,35,92.10
2007,09,29,10,36,90.00
2007,09,29,10,37,90.00
2007,09,29,10,38,88.60
2007,09,29,10,39,88.00
2007,09,29,10,40,90.40
2007,09,29,10,41,91.50
2007,09,29,10,42,88.00
2007,09,29,10,43,89.30
2007,09,29,10,44,90.70
2007,09,29,10,45,90.00
2007,09,29,10,46,83.80
2007,09,29,10,47,83.00
2007,09,29,10,48,83.00
2007,09,29,10,49,86.50
2007,09,29,10,50,89.60
2007,09,29,10,51,88.10
2007,09,29,10,52,81.80
2007,09,29,10,53,77.10
2007,09,29,10,54,80.80
2007,09,29,10,55,85.10
2007,09,29,10,56,87.60
2007,09,29,10,57,88.00
2007,09,29,10,58,89.20
2007,09,29,10,59,95.90
2007,09,29,11,00,102.50
2007,09,29,11,01,104.30
2007,09,29,11,02,98.80
2007,09,29,11,03,91.00
2007,09,29,11,04,91.90
2007,09,29,11,05,94.20
2007,09,29,11,06,92.00
2007,09,29,11,07,88.80
2007,09,29,11,08,88.00
2007,09,29,11,09,91.00
2007,09,29,11,10,89.80
2007,09,29,11,11,84.00
2007,09,29,11,12,76.90
2007,09,29,11,13,70.90
2007,09,29,11,14,73.20
2007,09,29,11,15,78.80
2007,09,29,11,16,75.10
2007,09,29,11,17,70.90
2007,09,29,11,18,78.50
2007,09,29,11,19,88.40
2007,09,29,11,20,88.30
2007,09,29,11,21,79.30
2007,09,29,11,22,79.80
2007,09,29,11,23,76.50
2007,09,29,11,24,77.70
2007,09,29,11,25,83.10
2007,09,29,11,26,90.00
2007,09,29,11,27,97.50
2007,09,29,11,28,95.90
2007,09,29,11,29,99.90
2007,09,29,11,30,100.70
2007,09,29,11,31,101.50
2007,09,29,11,32,105.20
2007,09,29,11,33,108.10
2007,09,29,11,34,105.10
2007,09,29,11,35,114.20
2007,09,29,11,36,131.50
2007,09,29,11,37,141.20
2007,09,29,11,38,148.30
2007,09,29,11,39,155.10
2007,09,29,11,40,167.40
2007,09,29,11,41,177.60
2007,09,29,11,42,175.50
2007,09,29,11,43,171.40
2007,09,29,11,44,171.00
2007,09,29,11,45,171.00
2007,09,29,11,46,169.40
2007,09,29,11,47,167.00
2007,09,29,11,48,167.00
2007,09,29,11,49,168.80
2007,09,29,11,50,170.80
2007,09,29,11,51,169.60
2007,09,29,11,52,168.60
2007,09,29,11,53,166.20
2007,09,29,11,54,163.90
2007,09,29,11,55,155.50
2007,09,29,11,56,146.10
2007,09,29,11,57,141.20
2007,09,29,11,58,139.00
2007,09,29,11,59,140.30
2007,09,29,12,00,139.40
2007,09,29,12,01,135.00
2007,09,29,12,02,136.60
2007,09,29,12,03,146.50
2007,09,29,12,04,152.90
2007,09,29,12,05,155.00
2007,09,29,12,06,153.40
2007,09,29,12,07,148.00
2007,09,29,12,08,145.60
2007,09,29,12,09,143.40
2007,09,29,12,10,142.00
2007,09,29,12,11,142.00
2007,09,29,12,12,141.20
2007,09,29,12,13,136.90
2007,09,29,12,14,134.50
2007,09,29,12,15,130.80
2007,09,29,12,16,128.00
2007,09,29,12,17,125.90
2007,09,29,12,18,121.50
2007,09,29,12,19,120.00
2007,09,29,12,20,117.50
2007,09,29,12,21,116.70
2007,09,29,12,22,119.00
2007,09,29,12,23,120.70
2007,09,29,12,24,121.00
2007,09,29,12,25,121.00
2007,09,29,12,26,121.00
2007,09,29,12,27,121.00
2007,09,29,12,28,121.00
2007,09,29,12,29,121.00
2007,09,29,12,30,122.90
2007,09,29,12,31,123.00
2007,09,29,12,32,122.50
2007,09,29,12,33,120.60
2007,09,29,12,34,118.80
2007,09,29,12,35,116.70
2007,09,29,12,36,114.40
2007,09,29,12,37,113.00
2007,09,29,12,38,113.00
2007,09,29,12,39,113.00
2007,09,29,12,40,113.00
2007,09,29,12,41,111.50
2007,09,29,12,42,111.00
2007,09,29,12,43,109.00
2007,09,29,12,44,109.00
2007,09,29,12,45,109.00
2007,09,29,12,46,110.30
2007,09,29,12,47,111.00
2007,09,29,12,48,112.90
2007,09,29,12,49,113.00
2007,09,29,12,50,113.30
2007,09,29,12,51,114.90
2007,09,29,12,52,116.00
2007,09,29,12,53,119.30
2007,09,29,12,54,121.00
2007,09,29,12,55,123.40
2007,09,29,12,56,125.70
2007,09,29,12,57,127.00
2007,09,29,12,58,127.70
2007,09,29,12,59,128.00
2007,09,29,13,00,127.90
2007,09,29,13,01,126.50
2007,09,29,13,02,124.30
2007,09,29,13,03,121.90
2007,09,29,13,04,118.80
2007,09,29,13,05,114.50
2007,09,29,13,06,112.90
2007,09,29,13,07,110.50
2007,09,29,13,08,109.00
2007,09,29,13,09,109.00
2007,09,29,13,10,109.00
2007,09,29,13,11,110.80
2007,09,29,13,12,113.10
2007,09,29,13,13,114.50
2007,09,29,13,14,116.80
2007,09,29,13,15,119.20
2007,09,29,13,16,120.70
2007,09,29,13,17,124.80
2007,09,29,13,18,130.50
2007,09,29,13,19,134.90
2007,09,29,13,20,138.90
2007,09,29,13,21,141.60
2007,09,29,13,22,143.50
2007,09,29,13,23,144.00
2007,09,29,13,24,146.00
2007,09,29,13,25,146.00
2007,09,29,13,26,146.00
2007,09,29,13,27,146.00
2007,09,29,13,28,144.40
2007,09,29,13,29,144.00
2007,09,29,13,30,144.00
2007,09,29,13,31,144.00
2007,09,29,13,32,144.00
2007,09,29,13,33,144.00
2007,09,29,13,34,142.40
2007,09,29,13,35,141.90
2007,09,29,13,36,140.60
2007,09,29,13,37,138.30
2007,09,29,13,38,135.30
2007,09,29,13,39,131.20
2007,09,29,13,40,127.40
2007,09,29,13,41,122.80
2007,09,29,13,42,120.00
2007,09,29,13,43,118.60
2007,09,29,13,44,114.90
2007,09,29,13,45,113.40
2007,09,29,13,46,113.00
2007,09,29,13,47,114.10
2007,09,29,13,48,117.00
2007,09,29,13,49,120.40
2007,09,29,13,50,122.20
2007,09,29,13,51,126.10
2007,09,29,13,52,129.40
2007,09,29,13,53,134.40
2007,09,29,13,54,137.50
2007,09,29,13,55,139.80
2007,09,29,13,56,141.60
2007,09,29,13,57,142.00
2007,09,29,13,58,143.70
2007,09,29,13,59,144.00
2007,09,29,14,00,143.40
2007,09,29,14,01,142.00
2007,09,29,14,02,142.00
2007,09,29,14,03,142.00
2007,09,29,14,04,141.00
2007,09,29,14,05,141.00
2007,09,29,14,06,141.00
2007,09,29,14,07,140.10
2007,09,29,14,08,139.00
2007,09,29,14,09,139.00
2007,09,29,14,10,139.00
2007,09,29,14,11,139.00
2007,09,29,14,12,139.00
2007,09,29,14,13,139.00
2007,09,29,14,14,140.30
2007,09,29,14,15,139.40
2007,09,29,14,16,139.00
2007,09,29,14,17,139.00
2007,09,29,14,18,138.30
2007,09,29,14,19,138.10
2007,09,29,14,20,140.40
2007,09,29,14,21,141.00
2007,09,29,14,22,141.10
2007,09,29,14,23,142.00
2007,09,29,14,24,142.00
2007,09,29,14,25,142.00
2007,09,29,14,26,143.40
2007,09,29,14,27,144.00
2007,09,29,14,28,144.00
2007,09,29,14,29,144.50
2007,09,29,14,30,146.00
2007,09,29,14,31,146.00
2007,09,29,14,32,146.00
2007,09,29,14,33,146.00
2007,09,29,14,34,143.90
2007,09,29,14,35,141.10
2007,09,29,14,36,138.20
2007,09,29,14,37,135.30
2007,09,29,14,38,132.50
2007,09,29,14,39,130.10
2007,09,29,14,40,128.10
2007,09,29,14,41,128.00
2007,09,29,14,42,128.00
2007,09,29,14,43,129.00
2007,09,29,14,44,130.00
2007,09,29,14,45,131.60
2007,09,29,14,46,132.40
2007,09,29,14,47,134.00
2007,09,29,14,48,134.50
2007,09,29,14,49,135.00
2007,09,29,14,50,136.60
2007,09,29,14,51,135.00
2007,09,29,14,52,131.30
2007,09,29,14,53,127.60
2007,09,29,14,54,125.10
2007,09,29,14,55,121.20
2007,09,29,14,56,118.40
2007,09,29,14,57,113.90
2007,09,29,14,58,112.20
2007,09,29,14,59,107.40
2007,09,29,15,00,103.40
2007,09,29,15,01,99.20
2007,09,29,15,02,95.40
2007,09,29,15,03,92.90
2007,09,29,15,04,91.00
2007,09,29,15,05,91.00
2007,09,29,15,06,91.00
2007,09,29,15,07,91.00
2007,09,29,15,08,92.80
2007,09,29,15,09,95.10
2007,09,29,15,10,97.00
2007,09,29,15,11,97.40
2007,09,29,15,12,99.20
2007,09,29,15,13,101.50
2007,09,29,15,14,104.80
2007,09,29,15,15,109.00
2007,09,29,15,16,111.00
2007,09,29,15,17,111.00
2007,09,29,15,18,108.60
2007,09,29,15,19,105.40
2007,09,29,15,20,105.00
2007,09,29,15,21,105.00
2007,09,29,15,22,104.70
2007,09,29,15,23,103.00
2007,09,29,15,24,100.70
2007,09,29,15,25,100.00
2007,09,29,15,26,100.00
2007,09,29,15,27,102.20
2007,09,29,15,28,104.30
2007,09,29,15,29,105.80
2007,09,29,15,30,107.00
2007,09,29,15,31,108.60
2007,09,29,15,32,109.00
2007,09,29,15,33,109.40
2007,09,29,15,34,111.00
2007,09,29,15,35,112.00
2007,09,29,15,36,113.00
2007,09,29,15,37,115.50
2007,09,29,15,38,119.40
2007,09,29,15,39,121.00
2007,09,29,15,40,120.60
2007,09,29,15,41,118.90
2007,09,29,15,42,118.00
2007,09,29,15,43,118.00
2007,09,29,15,44,120.10
2007,09,29,15,45,122.10
2007,09,29,15,46,128.20
2007,09,29,15,47,132.60
2007,09,29,15,48,138.90
2007,09,29,15,49,143.60
2007,09,29,15,50,149.20
2007,09,29,15,51,153.80
2007,09,29,15,52,156.80
2007,09,29,15,53,158.00
2007,09,29,15,54,159.50
2007,09,29,15,55,161.80
2007,09,29,15,56,162.00
2007,09,29,15,57,161.50
2007,09,29,15,58,159.20
2007,09,29,15,59,157.00
2007,09,29,16,00,155.40
2007,09,29,16,01,151.80
2007,09,29,16,02,149.00
2007,09,29,16,03,147.40
2007,09,29,16,04,145.10
2007,09,29,16,05,142.90
2007,09,29,16,06,139.70
2007,09,29,16,07,135.00
2007,09,29,16,08,131.70
2007,09,29,16,09,130.00
2007,09,29,16,10,130.00
2007,09,29,16,11,128.70
2007,09,29,16,12,127.20
2007,09,29,16,13,125.00
2007,09,29,16,14,122.60
2007,09,29,16,15,120.70
2007,09,29,16,16,119.10
2007,09,29,16,17,116.60
2007,09,29,16,18,114.40
2007,09,29,16,19,113.10
2007,09,29,16,20,110.60
2007,09,29,16,21,108.30
2007,09,29,16,22,107.00
2007,09,29,16,23,105.60
2007,09,29,16,24,105.00
2007,09,29,16,25,104.90
2007,09,29,16,26,103.50
2007,09,29,16,27,100.60
2007,09,29,16,28,96.40
2007,09,29,16,29,92.40
2007,09,29,16,30,88.40
2007,09,29,16,31,83.80
2007,09,29,16,32,79.90
2007,09,29,16,33,76.60
2007,09,29,16,34,75.00
2007,09,29,16,35,74.00
2007,09,29,16,36,74.00
2007,09,29,16,37,74.00
2007,09,29,16,38,73.50
2007,09,29,16,39,71.20
2007,09,29,16,40,68.20
2007,09,29,16,41,65.60
2007,09,29,16,42,65.00
2007,09,29,16,43,63.10
2007,09,29,16,44,63.60
2007,09,29,16,45,65.00
2007,09,29,16,46,67.60
2007,09,29,16,47,69.80
2007,09,29,16,48,73.80
2007,09,29,16,49,77.20
2007,09,29,16,50,79.60
2007,09,29,16,51,81.90
2007,09,29,16,52,83.70
2007,09,29,16,53,84.00
2007,09,29,16,54,85.80
2007,09,29,16,55,88.00
2007,09,29,16,56,88.00
2007,09,29,16,57,87.10
2007,09,29,16,58,84.70
2007,09,29,16,59,83.30
2007,09,29,17,00,81.00
2007,09,29,17,01,81.00
2007,09,29,17,02,81.00
2007,09,29,17,03,79.90
2007,09,29,17,04,79.00
2007,09,29,17,05,79.00
2007,09,29,17,06,77.00
2007,09,29,17,07,77.00
2007,09,29,17,08,77.00
2007,09,29,17,09,76.50
2007,09,29,17,10,76.00
2007,09,29,17,11,74.20
2007,09,29,17,12,72.00
2007,09,29,17,13,69.80
2007,09,29,17,14,68.30
2007,09,29,17,15,64.60
2007,09,29,17,16,60.90
2007,09,29,17,17,57.00
2007,09,29,17,18,52.90
2007,09,29,17,19,50.60
2007,09,29,17,20,49.00
2007,09,29,17,21,47.80
2007,09,29,17,22,46.20
2007,09,29,17,23,44.10
2007,09,29,17,24,42.00
2007,09,29,17,25,42.00
2007,09,29,17,26,41.10